Preview of NWS' New Version of Forecast
This preview is not operational and should not be used for support decisions.

Regional Weather Roundup (RWR)

Issued by National Weather Service (NWS)

                            
000
ASUS43 KLSX 240457
RWRMO 

WEATHER SUMMARY FOR MISSOURI
NATIONAL WEATHER SERVICE SPRINGFIELD MO
1200 AM CDT SUN MAR 24 2019

NOTE: "FAIR" INDICATES FEW OR NO CLOUDS BELOW 12,000 FEET WITH NO
       SIGNIFICANT WEATHER AND/OR OBSTRUCTIONS TO VISIBILITY.
       CURRENT SKY AND/OR WEATHER CONDITIONS ARE NOT AVAILABLE FOR
       CHILLICOTHE AND FARMINGTON.

MOZ001>031-035>038-043-044-053-054-240600-
...NORTHERN AND WESTERN MISSOURI...
  
CITY           SKY/WX    TMP DP  RH WIND       PRES   REMARKS
KANSAS CTY INT CLOUDY    50  44  80 S12       30.01F                  
LEE'S SUMMIT   CLOUDY    50  43  77 S15G25    30.03S                  
ST JOSEPH        N/A    N/A N/A N/A MISG      30.00F                  
CHILLICOTHE      N/A     52  45  77 SE7       30.07S                  
     
$$
MOZ066>068-077>081-088>096-101>105-240600-
...SOUTHWEST MISSOURI...
  
CITY           SKY/WX    TMP DP  RH WIND       PRES   REMARKS
SPRINGFIELD    CLOUDY    50  44  80 SE20      30.07F                  
JOPLIN         MOCLDY    50  46  86 SE15G24   30.03F                  
               
$$
MOZ032>034-039>042-045>050-055>058-069>072-240600-
...CENTRAL MISSOURI...  
  
CITY           SKY/WX    TMP DP  RH WIND       PRES   REMARKS
COLUMBIA       NOT AVBL                                               
JEFFERSON CITY CLOUDY    50  44  80 SE13      30.13F                  
ROLLA          CLOUDY    47  43  86 SE16      30.14F                  
SEDALIA        CLOUDY    51  45  79 S20G26    30.07F                  
WARRENSBURG    CLOUDY    50  43  76 SE14G20   30.05F                  
               
$$
MOZ051-052-059>065-240600-
...EAST CENTRAL MISSOURI...
  
CITY           SKY/WX    TMP DP  RH WIND       PRES   REMARKS
ST LOUIS INTL  CLOUDY    50  44  80 S13       30.17F                  
                   
$$
MOZ072>076-082>087-097>100-106>115-240600-
...SOUTH CENTRAL AND SOUTHEAST MISSOURI...
  
CITY           SKY/WX    TMP DP  RH WIND       PRES   REMARKS
CAPE GIRARDEAU CLOUDY    51  40  65 SE5       30.21F                  
POPLAR BLUFF   LGT RAIN  53  41  63 E3        30.19F                  
WEST PLAINS    CLOUDY    48  44  86 E5        30.18F                  
                                       
$$